,,,PA_Meas_PMT16A,,PR_Meas_QMR101_102,,RH_Meas_QMH101,,SR_Meas_QMS101,,TA_Meas_QMH101,,GenWind,,GenWind,
date,time,status,PA,status,PR,status,RH,status,SR,status,TA,status,DirAvg,status,SpdAvg,
2010-05-25, 00:00:04,VALID,1005.62,VALID,0,VALID,97.4132,VALID,0.100563,VALID,24.9087,VALID,329,VALID,0.458984,
2010-05-25, 00:01:04,VALID,1005.61,VALID,0,VALID,97.3903,VALID,0,VALID,24.9087,VALID,18,VALID,0.992578,
2010-05-25, 00:02:04,VALID,1005.58,VALID,0,VALID,97.4055,VALID,0,VALID,24.9671,VALID,333,VALID,0.642969,
2010-05-25, 00:03:04,VALID,1005.57,VALID,0,VALID,97.3979,VALID,0.100563,VALID,24.9671,VALID,325,VALID,0.473828,
2010-05-25, 00:04:04,VALID,1005.51,VALID,0,VALID,97.3293,VALID,0.100563,VALID,24.9671,VALID,325,VALID,0.157813,
2010-05-25, 00:05:04,VALID,1005.53,VALID,0,VALID,97.2759,VALID,0,VALID,24.9671,VALID,333,VALID,0.358203,
2010-05-25, 00:06:04,VALID,1005.54,VALID,0,VALID,97.2301,VALID,0.100563,VALID,25.006,VALID,45,VALID,1.43242,
2010-05-25, 00:07:04,VALID,1005.52,VALID,0,VALID,97.2148,VALID,0.100563,VALID,25.1229,VALID,7,VALID,0.583594,
2010-05-25, 00:08:04,VALID,1005.5,VALID,0,VALID,97.0699,VALID,0,VALID,25.1813,VALID,358,VALID,0.632031,
2010-05-25, 00:09:04,VALID,1005.52,VALID,0,VALID,96.8563,VALID,0,VALID,25.2202,VALID,359,VALID,0.621094,
2010-05-25, 00:10:04,VALID,1005.52,VALID,0,VALID,96.5969,VALID,0,VALID,25.2397,VALID,360,VALID,0.26875,
2010-05-25, 00:11:04,VALID,1005.47,VALID,0,VALID,96.3299,VALID,0.100563,VALID,25.2981,VALID,9,VALID,0.227734,
2010-05-25, 00:12:04,VALID,1005.44,VALID,0,VALID,96.101,VALID,0.100563,VALID,25.3176,VALID,9,VALID,0.130469,
2010-05-25, 00:13:04,VALID,1005.41,VALID,0,VALID,95.8416,VALID,0.100563,VALID,25.337,VALID,9,VALID,0.415625,
2010-05-25, 00:14:04,VALID,1005.36,VALID,0,VALID,95.7043,VALID,0,VALID,25.376,VALID,354,VALID,0.266406,
2010-05-25, 00:15:04,VALID,1005.37,VALID,0,VALID,95.6051,VALID,0,VALID,25.3584,VALID,354,VALID,0.0335938,
2010-05-25, 00:16:04,VALID,1005.37,VALID,0,VALID,95.5517,VALID,0,VALID,25.3565,VALID,354,VALID,0.245312,
2010-05-25, 00:17:04,VALID,1005.35,VALID,0,VALID,95.4602,VALID,0,VALID,25.3565,VALID,354,VALID,0.264062,
2010-05-25, 00:18:04,VALID,1005.33,VALID,0,VALID,95.3686,VALID,0,VALID,25.3974,VALID,354,VALID,0.0738281,
2010-05-25, 00:19:04,VALID,1005.32,VALID,0,VALID,95.3076,VALID,0,VALID,25.376,VALID,354,VALID,0.491406,
2010-05-25, 00:20:04,VALID,1005.3,VALID,0,VALID,95.3686,VALID,0.100563,VALID,25.3565,VALID,354,VALID,0.435937,
2010-05-25, 00:21:04,VALID,1005.28,VALID,0,VALID,95.4754,VALID,0,VALID,25.2962,VALID,354,VALID,0.15625,
2010-05-25, 00:22:04,VALID,1005.28,VALID,0,VALID,95.4297,VALID,0,VALID,25.2592,VALID,354,VALID,0.340625,
2010-05-25, 00:23:04,VALID,1005.27,VALID,0,VALID,95.4983,VALID,0,VALID,25.2221,VALID,354,VALID,0.302734,
2010-05-25, 00:24:04,VALID,1005.22,VALID,0,VALID,95.7424,VALID,0,VALID,25.1423,VALID,354,VALID,0.202344,
2010-05-25, 00:25:04,VALID,1005.18,VALID,0,VALID,95.9408,VALID,0,VALID,25.1034,VALID,354,VALID,0.153125,
2010-05-25, 00:26:04,VALID,1005.18,VALID,0,VALID,96.0934,VALID,0,VALID,25.045,VALID,354,VALID,0.228516,
2010-05-25, 00:27:04,VALID,1005.13,VALID,0,VALID,96.2612,VALID,0,VALID,25.0255,VALID,354,VALID,0.0105469,
2010-05-25, 00:28:04,VALID,1005.14,VALID,0,VALID,96.4214,VALID,0,VALID,24.9671,VALID,354,VALID,0.232031,
2010-05-25, 00:29:04,VALID,1005.09,VALID,0,VALID,96.5359,VALID,0,VALID,24.9476,VALID,354,VALID,0.0289063,
2010-05-25, 00:30:04,VALID,1005.09,VALID,0,VALID,96.6503,VALID,0,VALID,24.9282,VALID,354,VALID,0,
2010-05-25, 00:31:04,VALID,1005.07,VALID,0,VALID,96.7189,VALID,0,VALID,24.8892,VALID,354,VALID,0.0816406,
2010-05-25, 00:32:04,VALID,1005.07,VALID,0,VALID,96.7952,VALID,0,VALID,24.8716,VALID,354,VALID,0.159766,
2010-05-25, 00:33:04,VALID,1005.07,VALID,0,VALID,96.8486,VALID,0,VALID,24.7919,VALID,354,VALID,0.0792969,
2010-05-25, 00:34:04,VALID,1005.05,VALID,0,VALID,96.8868,VALID,0,VALID,24.7724,VALID,354,VALID,0.311328,
2010-05-25, 00:35:04,VALID,1005.03,VALID,0,VALID,96.9631,VALID,0,VALID,24.7724,VALID,354,VALID,0.3875,
2010-05-25, 00:36:04,VALID,1004.99,VALID,0,VALID,97.0317,VALID,0,VALID,24.7743,VALID,354,VALID,0.373047,
2010-05-25, 00:37:04,VALID,1004.96,VALID,0,VALID,97.1462,VALID,0,VALID,24.7743,VALID,354,VALID,0.321094,
2010-05-25, 00:38:04,VALID,1004.97,VALID,0,VALID,97.2072,VALID,0,VALID,24.7529,VALID,354,VALID,0.255078,
2010-05-25, 00:39:04,VALID,1004.93,VALID,0,VALID,97.253,VALID,0,VALID,24.6945,VALID,354,VALID,0.485156,
2010-05-25, 00:40:04,VALID,1004.88,VALID,0,VALID,97.2911,VALID,0,VALID,24.6556,VALID,354,VALID,0.3,
2010-05-25, 00:41:04,VALID,1004.89,VALID,0,VALID,97.314,VALID,0,VALID,24.6556,VALID,354,VALID,0.392188,
2010-05-25, 00:42:04,VALID,1004.83,VALID,0,VALID,97.3521,VALID,0,VALID,24.638,VALID,354,VALID,0.507031,
2010-05-25, 00:43:04,VALID,1004.79,VALID,0,VALID,97.3827,VALID,0,VALID,24.6574,VALID,353,VALID,0.4625,
2010-05-25, 00:44:04,VALID,1004.78,VALID,0,VALID,97.4055,VALID,0,VALID,24.6361,VALID,329,VALID,0.600391,
2010-05-25, 00:45:04,VALID,1004.73,VALID,0,VALID,97.4361,VALID,0,VALID,24.675,VALID,343,VALID,0.583984,
2010-05-25, 00:46:04,VALID,1004.73,VALID,0,VALID,97.4818,VALID,0,VALID,24.6556,VALID,345,VALID,0.441016,
2010-05-25, 00:47:04,VALID,1004.68,VALID,0,VALID,97.4895,VALID,0,VALID,24.6361,VALID,345,VALID,0.405859,
2010-05-25, 00:48:04,VALID,1004.66,VALID,0,VALID,97.5124,VALID,0,VALID,24.675,VALID,345,VALID,0.497656,
2010-05-25, 00:49:04,VALID,1004.66,VALID,0,VALID,97.5581,VALID,0,VALID,24.675,VALID,345,VALID,0.238672,
2010-05-25, 00:50:04,VALID,1004.63,VALID,0,VALID,97.5581,VALID,0,VALID,24.6556,VALID,345,VALID,0.391406,
2010-05-25, 00:51:04,VALID,1004.62,VALID,0,VALID,97.5734,VALID,0,VALID,24.675,VALID,345,VALID,0.273047,
2010-05-25, 00:52:04,VALID,1004.59,VALID,0,VALID,97.5734,VALID,0,VALID,24.6556,VALID,345,VALID,0.357031,
2010-05-25, 00:53:04,VALID,1004.57,VALID,0,VALID,97.5734,VALID,0,VALID,24.6556,VALID,331,VALID,0.555859,
2010-05-25, 00:54:04,VALID,1004.52,VALID,0,VALID,97.5658,VALID,0,VALID,24.6945,VALID,305,VALID,0.648828,
2010-05-25, 00:55:04,VALID,1004.52,VALID,0,VALID,97.5886,VALID,0,VALID,24.6945,VALID,305,VALID,0.442578,
2010-05-25, 00:56:04,VALID,1004.49,VALID,0,VALID,97.581,VALID,0,VALID,24.7335,VALID,305,VALID,0.198047,
2010-05-25, 00:57:04,VALID,1004.47,VALID,0,VALID,97.6039,VALID,0,VALID,24.7529,VALID,305,VALID,0.440625,
2010-05-25, 00:58:04,VALID,1004.5,VALID,0,VALID,97.6039,VALID,0,VALID,24.7724,VALID,305,VALID,0.0730469,
2010-05-25, 00:59:04,VALID,1004.45,VALID,0,VALID,97.6192,VALID,0,VALID,24.7529,VALID,314,VALID,0.304297,
2010-05-25, 01:00:04,VALID,1004.46,VALID,0,VALID,97.6268,VALID,0,VALID,24.7335,VALID,314,VALID,0.253906,
2010-05-25, 01:01:04,VALID,1004.44,VALID,0,VALID,97.6344,VALID,0,VALID,24.7335,VALID,314,VALID,0.116016,
2010-05-25, 01:02:04,VALID,1004.42,VALID,0,VALID,97.6192,VALID,0,VALID,24.7159,VALID,314,VALID,0.2125,
2010-05-25, 01:03:04,VALID,1004.43,VALID,0,VALID,97.6115,VALID,0,VALID,24.6556,VALID,314,VALID,0,
2010-05-25, 01:04:04,VALID,1004.38,VALID,0,VALID,97.5963,VALID,0,VALID,24.6556,VALID,314,VALID,0.203516,
2010-05-25, 01:05:04,VALID,1004.38,VALID,0,VALID,97.6039,VALID,0,VALID,24.6166,VALID,314,VALID,0.181641,
2010-05-25, 01:06:04,VALID,1004.36,VALID,0,VALID,97.5658,VALID,0,VALID,24.5777,VALID,314,VALID,0.194922,
2010-05-25, 01:07:04,VALID,1004.33,VALID,0,VALID,97.5658,VALID,0,VALID,24.5796,VALID,314,VALID,0,
2010-05-25, 01:08:04,VALID,1004.34,VALID,0,VALID,97.5581,VALID,0,VALID,24.5582,VALID,314,VALID,0,
2010-05-25, 01:09:04,VALID,1004.32,VALID,0,VALID,97.5505,VALID,0,VALID,24.5388,VALID,314,VALID,0,
2010-05-25, 01:10:04,VALID,1004.3,VALID,0,VALID,97.581,VALID,0,VALID,24.5193,VALID,314,VALID,0,
2010-05-25, 01:11:04,VALID,1004.31,VALID,0,VALID,97.5734,VALID,0,VALID,24.5017,VALID,314,VALID,0,
2010-05-25, 01:12:04,VALID,1004.3,VALID,0,VALID,97.581,VALID,0,VALID,24.4804,VALID,314,VALID,0,
2010-05-25, 01:13:04,VALID,1004.3,VALID,0,VALID,97.581,VALID,0,VALID,24.4822,VALID,314,VALID,0.247266,
2010-05-25, 01:14:04,VALID,1004.27,VALID,0,VALID,97.581,VALID,0,VALID,24.4201,VALID,314,VALID,0.0339844,
2010-05-25, 01:15:04,VALID,1004.26,VALID,0,VALID,97.6039,VALID,0,VALID,24.4628,VALID,314,VALID,0,
2010-05-25, 01:16:04,VALID,1004.23,VALID,0,VALID,97.6039,VALID,0,VALID,24.4238,VALID,314,VALID,0,
2010-05-25, 01:17:04,VALID,1004.23,VALID,0,VALID,97.6192,VALID,0,VALID,24.383,VALID,314,VALID,0,
2010-05-25, 01:18:04,VALID,1004.21,VALID,0,VALID,97.6268,VALID,0,VALID,24.3617,VALID,314,VALID,0,
2010-05-25, 01:19:04,VALID,1004.18,VALID,0,VALID,97.6192,VALID,0,VALID,24.383,VALID,314,VALID,0.255469,
2010-05-25, 01:20:04,VALID,1004.15,VALID,0,VALID,97.642,VALID,0.100563,VALID,24.383,VALID,314,VALID,0.358594,
2010-05-25, 01:21:04,VALID,1004.17,VALID,0,VALID,97.6497,VALID,0,VALID,24.3441,VALID,314,VALID,0.531641,
2010-05-25, 01:22:04,VALID,1004.14,VALID,0,VALID,97.6726,VALID,0,VALID,24.3265,VALID,314,VALID,0.508984,
2010-05-25, 01:23:04,VALID,1004.16,VALID,0,VALID,97.6726,VALID,0,VALID,24.2857,VALID,358,VALID,0.547656,
2010-05-25, 01:24:04,VALID,1004.15,VALID,0,VALID,97.6649,VALID,0,VALID,24.2875,VALID,23,VALID,0.705078,
2010-05-25, 01:25:04,VALID,1004.16,VALID,0,VALID,97.6649,VALID,0,VALID,24.2662,VALID,23,VALID,0.609766,
2010-05-25, 01:26:04,VALID,1004.13,VALID,0,VALID,97.6573,VALID,0,VALID,24.2662,VALID,23,VALID,0.503125,
2010-05-25, 01:27:04,VALID,1004.12,VALID,0,VALID,97.6726,VALID,0,VALID,24.2468,VALID,23,VALID,0.434375,
2010-05-25, 01:28:04,VALID,1004.09,VALID,0,VALID,97.6726,VALID,0,VALID,24.2662,VALID,23,VALID,0.399609,
2010-05-25, 01:29:04,VALID,1004.12,VALID,0,VALID,97.6878,VALID,0,VALID,24.2468,VALID,23,VALID,0.355859,
2010-05-25, 01:30:04,VALID,1004.1,VALID,0,VALID,97.6954,VALID,0,VALID,24.2662,VALID,23,VALID,0.254687,
2010-05-25, 01:31:04,VALID,1004.11,VALID,0,VALID,97.6954,VALID,0,VALID,24.2468,VALID,23,VALID,0.388672,
2010-05-25, 01:32:04,VALID,1004.06,VALID,0,VALID,97.6954,VALID,0,VALID,24.2681,VALID,23,VALID,0.33125,
2010-05-25, 01:33:04,VALID,1004.05,VALID,0,VALID,97.6954,VALID,0,VALID,24.2681,VALID,23,VALID,0.256641,
2010-05-25, 01:34:04,VALID,1004.05,VALID,0,VALID,97.7107,VALID,0,VALID,24.2468,VALID,23,VALID,0.210156,
2010-05-25, 01:35:04,VALID,1004.02,VALID,0,VALID,97.7107,VALID,0,VALID,24.2468,VALID,23,VALID,0.232422,
2010-05-25, 01:36:04,VALID,1004.02,VALID,0,VALID,97.6954,VALID,0,VALID,24.307,VALID,23,VALID,0.213281,
2010-05-25, 01:37:04,VALID,1004,VALID,0,VALID,97.6954,VALID,0,VALID,24.2857,VALID,23,VALID,0.431641,
2010-05-25, 01:38:04,VALID,1004,VALID,0,VALID,97.7031,VALID,0,VALID,24.2857,VALID,23,VALID,0.467969,
2010-05-25, 01:39:04,VALID,1004.04,VALID,0,VALID,97.7031,VALID,0,VALID,24.3052,VALID,23,VALID,0.426562,
2010-05-25, 01:40:04,VALID,1003.99,VALID,0,VALID,97.6878,VALID,0,VALID,24.3052,VALID,12,VALID,0.283594,
2010-05-25, 01:41:04,VALID,1003.97,VALID,0,VALID,97.7336,VALID,0,VALID,24.2857,VALID,12,VALID,0.366406,
2010-05-25, 01:42:04,VALID,1003.94,VALID,0,VALID,97.7565,VALID,0,VALID,24.2468,VALID,12,VALID,0.324219,
2010-05-25, 01:43:04,VALID,1003.93,VALID,0,VALID,97.7641,VALID,0,VALID,24.2078,VALID,12,VALID,0.630078,
2010-05-25, 01:44:04,VALID,1003.93,VALID,0,VALID,97.7412,VALID,0,VALID,24.2078,VALID,12,VALID,0.482812,
2010-05-25, 01:45:04,VALID,1003.92,VALID,0,VALID,97.7336,VALID,0,VALID,24.2078,VALID,11,VALID,0.391406,
2010-05-25, 01:46:04,VALID,1003.93,VALID,0,VALID,97.7336,VALID,0,VALID,24.2486,VALID,11,VALID,0.359766,
2010-05-25, 01:47:04,VALID,1003.9,VALID,0,VALID,97.7336,VALID,0,VALID,24.2078,VALID,11,VALID,0.469141,
2010-05-25, 01:48:04,VALID,1003.9,VALID,0,VALID,97.7488,VALID,0,VALID,24.2097,VALID,11,VALID,0.541016,
2010-05-25, 01:49:04,VALID,1003.89,VALID,0,VALID,97.7488,VALID,0,VALID,24.1884,VALID,11,VALID,0.564062,
2010-05-25, 01:50:04,VALID,1003.87,VALID,0,VALID,97.726,VALID,0,VALID,24.1865,VALID,11,VALID,0.433203,
2010-05-25, 01:51:04,VALID,1003.86,VALID,0,VALID,97.7412,VALID,0,VALID,24.2273,VALID,11,VALID,0.405859,
2010-05-25, 01:52:04,VALID,1003.82,VALID,0,VALID,97.7336,VALID,0,VALID,24.2078,VALID,11,VALID,0.5625,
2010-05-25, 01:53:04,VALID,1003.84,VALID,0,VALID,97.7183,VALID,0,VALID,24.2486,VALID,11,VALID,0.614062,
2010-05-25, 01:54:04,VALID,1003.84,VALID,0,VALID,97.7412,VALID,0,VALID,24.2273,VALID,11,VALID,0.491016,
2010-05-25, 01:55:04,VALID,1003.83,VALID,0,VALID,97.7641,VALID,0.100563,VALID,24.1865,VALID,11,VALID,0.528516,
2010-05-25, 01:56:04,VALID,1003.83,VALID,0,VALID,97.7488,VALID,0,VALID,24.2078,VALID,11,VALID,0.403906,
2010-05-25, 01:57:04,VALID,1003.83,VALID,0,VALID,97.726,VALID,0.100563,VALID,24.2078,VALID,11,VALID,0.343359,
2010-05-25, 01:58:04,VALID,1003.82,VALID,0,VALID,97.726,VALID,0,VALID,24.2273,VALID,11,VALID,0.247266,
2010-05-25, 01:59:04,VALID,1003.82,VALID,0,VALID,97.7488,VALID,0,VALID,24.1884,VALID,11,VALID,0.454688,
2010-05-25, 02:00:04,VALID,1003.82,VALID,0,VALID,97.7336,VALID,0.100563,VALID,24.2078,VALID,11,VALID,0.485156,
2010-05-25, 02:01:04,VALID,1003.84,VALID,0,VALID,97.7336,VALID,0,VALID,24.2097,VALID,11,VALID,0.276563,
2010-05-25, 02:02:04,VALID,1003.84,VALID,0,VALID,97.726,VALID,0,VALID,24.2486,VALID,11,VALID,0.228906,
2010-05-25, 02:03:04,VALID,1003.82,VALID,0,VALID,97.726,VALID,0,VALID,24.2273,VALID,11,VALID,0.357422,
2010-05-25, 02:04:04,VALID,1003.83,VALID,0,VALID,97.7641,VALID,0,VALID,24.2097,VALID,11,VALID,0.414063,
2010-05-25, 02:05:04,VALID,1003.83,VALID,0,VALID,97.7412,VALID,0,VALID,24.1884,VALID,11,VALID,0.39375,
2010-05-25, 02:06:04,VALID,1003.82,VALID,0,VALID,97.726,VALID,0,VALID,24.2291,VALID,11,VALID,0.259375,
2010-05-25, 02:07:04,VALID,1003.82,VALID,0,VALID,97.7031,VALID,0,VALID,24.2468,VALID,11,VALID,0.227344,
2010-05-25, 02:08:04,VALID,1003.82,VALID,0,VALID,97.7107,VALID,0,VALID,24.2662,VALID,11,VALID,0.150391,
2010-05-25, 02:09:04,VALID,1003.82,VALID,0,VALID,97.6954,VALID,0,VALID,24.3283,VALID,11,VALID,0.175,
2010-05-25, 02:10:04,VALID,1003.86,VALID,0,VALID,97.7336,VALID,0,VALID,24.2875,VALID,11,VALID,0.182031,
2010-05-25, 02:11:04,VALID,1003.86,VALID,0,VALID,97.7336,VALID,0,VALID,24.2875,VALID,11,VALID,0.0535156,
2010-05-25, 02:12:04,VALID,1003.88,VALID,0,VALID,97.7488,VALID,0,VALID,24.2486,VALID,11,VALID,0.218359,
2010-05-25, 02:13:04,VALID,1003.88,VALID,0,VALID,97.7717,VALID,0,VALID,24.2699,VALID,11,VALID,0.258594,
2010-05-25, 02:14:04,VALID,1003.88,VALID,0,VALID,97.7488,VALID,0,VALID,24.2486,VALID,11,VALID,0,
2010-05-25, 02:15:04,VALID,1003.86,VALID,0,VALID,97.7565,VALID,0,VALID,24.2291,VALID,11,VALID,0.156641,
2010-05-25, 02:16:04,VALID,1003.88,VALID,0,VALID,97.7641,VALID,0,VALID,24.1689,VALID,11,VALID,0.0820313,
2010-05-25, 02:17:04,VALID,1003.89,VALID,0,VALID,97.787,VALID,0,VALID,24.1707,VALID,11,VALID,0.0824219,
2010-05-25, 02:18:04,VALID,1003.9,VALID,0,VALID,97.8099,VALID,0,VALID,24.13,VALID,11,VALID,0.212891,
2010-05-25, 02:19:04,VALID,1003.91,VALID,0,VALID,97.787,VALID,0,VALID,24.1318,VALID,11,VALID,0.116406,
2010-05-25, 02:20:04,VALID,1003.88,VALID,0,VALID,97.7794,VALID,0,VALID,24.1513,VALID,11,VALID,0.150781,
2010-05-25, 02:21:04,VALID,1003.88,VALID,0,VALID,97.7717,VALID,0,VALID,24.1513,VALID,11,VALID,0.00117188,
2010-05-25, 02:22:04,VALID,1003.89,VALID,0,VALID,97.8022,VALID,0,VALID,24.1318,VALID,11,VALID,0,
2010-05-25, 02:23:04,VALID,1003.85,VALID,0,VALID,97.7946,VALID,0,VALID,24.1123,VALID,11,VALID,0,
2010-05-25, 02:24:04,VALID,1003.83,VALID,0,VALID,97.787,VALID,0,VALID,24.1123,VALID,11,VALID,0,
2010-05-25, 02:25:04,VALID,1003.86,VALID,0,VALID,97.787,VALID,0,VALID,24.0929,VALID,11,VALID,0,
2010-05-25, 02:26:04,VALID,1003.85,VALID,0,VALID,97.8022,VALID,0,VALID,24.0521,VALID,11,VALID,0.219922,
2010-05-25, 02:27:04,VALID,1003.81,VALID,0,VALID,97.787,VALID,0,VALID,24.0521,VALID,11,VALID,0.21875,
2010-05-25, 02:28:04,VALID,1003.84,VALID,0,VALID,97.7946,VALID,0,VALID,24.0539,VALID,11,VALID,0.325391,
2010-05-25, 02:29:04,VALID,1003.81,VALID,0,VALID,97.7717,VALID,0,VALID,24.0734,VALID,11,VALID,0.316016,
2010-05-25, 02:30:04,VALID,1003.79,VALID,0,VALID,97.7946,VALID,0,VALID,24.0308,VALID,11,VALID,0.43125,
2010-05-25, 02:31:04,VALID,1003.77,VALID,0,VALID,97.8099,VALID,0,VALID,24.0716,VALID,11,VALID,0.388672,
2010-05-25, 02:32:04,VALID,1003.76,VALID,0,VALID,97.8022,VALID,0.100563,VALID,24.0521,VALID,11,VALID,0.497266,
2010-05-25, 02:33:04,VALID,1003.73,VALID,0,VALID,97.8175,VALID,0.100563,VALID,24.0132,VALID,11,VALID,0.549609,
2010-05-25, 02:34:04,VALID,1003.72,VALID,0,VALID,97.8251,VALID,0,VALID,23.9919,VALID,11,VALID,0.485938,
2010-05-25, 02:35:04,VALID,1003.72,VALID,0,VALID,97.7946,VALID,0.100563,VALID,23.9919,VALID,10,VALID,0.541797,
2010-05-25, 02:36:04,VALID,1003.71,VALID,0,VALID,97.7794,VALID,0.100563,VALID,23.9937,VALID,10,VALID,0.519141,
2010-05-25, 02:37:04,VALID,1003.72,VALID,0,VALID,97.7641,VALID,0,VALID,23.9919,VALID,10,VALID,0.436328,
2010-05-25, 02:38:04,VALID,1003.7,VALID,0,VALID,97.787,VALID,0.100563,VALID,23.9937,VALID,10,VALID,0.560156,
2010-05-25, 02:39:04,VALID,1003.73,VALID,0,VALID,97.7946,VALID,0,VALID,23.9937,VALID,10,VALID,0.44375,
2010-05-25, 02:40:04,VALID,1003.74,VALID,0,VALID,97.787,VALID,0.100563,VALID,23.9937,VALID,10,VALID,0.551953,
2010-05-25, 02:41:04,VALID,1003.72,VALID,0,VALID,97.7794,VALID,0.100563,VALID,24.015,VALID,10,VALID,0.587109,
2010-05-25, 02:42:04,VALID,1003.7,VALID,0,VALID,97.7717,VALID,0.100563,VALID,24.0132,VALID,10,VALID,0.433203,
2010-05-25, 02:43:04,VALID,1003.69,VALID,0,VALID,97.7946,VALID,0.100563,VALID,24.0326,VALID,10,VALID,0.537109,
2010-05-25, 02:44:04,VALID,1003.67,VALID,0,VALID,97.7717,VALID,0.100563,VALID,24.0114,VALID,10,VALID,0.530078,
2010-05-25, 02:45:04,VALID,1003.69,VALID,0,VALID,97.8099,VALID,0.100563,VALID,24.0132,VALID,10,VALID,0.564844,
2010-05-25, 02:46:04,VALID,1003.66,VALID,0,VALID,97.7946,VALID,0.100563,VALID,23.9724,VALID,10,VALID,0.523438,
2010-05-25, 02:47:04,VALID,1003.63,VALID,0,VALID,97.787,VALID,0.100563,VALID,24.0132,VALID,10,VALID,0.4625,
2010-05-25, 02:48:04,VALID,1003.64,VALID,0,VALID,97.7794,VALID,0,VALID,23.9724,VALID,10,VALID,0.478906,
2010-05-25, 02:49:04,VALID,1003.61,VALID,0,VALID,97.8099,VALID,0.100563,VALID,23.9937,VALID,10,VALID,0.353906,
2010-05-25, 02:50:04,VALID,1003.63,VALID,0,VALID,97.7794,VALID,0,VALID,23.9742,VALID,10,VALID,0.208594,
2010-05-25, 02:51:04,VALID,1003.58,VALID,0,VALID,97.7565,VALID,0,VALID,24.0132,VALID,10,VALID,0,
2010-05-25, 02:52:04,VALID,1003.59,VALID,0,VALID,97.7183,VALID,0.100563,VALID,24.0716,VALID,10,VALID,0,
2010-05-25, 02:53:04,VALID,1003.62,VALID,0,VALID,97.7107,VALID,0.100563,VALID,24.091,VALID,10,VALID,0,
2010-05-25, 02:54:04,VALID,1003.6,VALID,0,VALID,97.726,VALID,0.100563,VALID,24.1105,VALID,10,VALID,0,
2010-05-25, 02:55:04,VALID,1003.66,VALID,0,VALID,97.7183,VALID,0.100563,VALID,24.13,VALID,358,VALID,0.18125,
2010-05-25, 02:56:04,VALID,1003.7,VALID,0,VALID,97.7183,VALID,0,VALID,24.1689,VALID,309,VALID,0.19375,
2010-05-25, 02:57:04,VALID,1003.7,VALID,0,VALID,97.7183,VALID,0.100563,VALID,24.1884,VALID,309,VALID,0.108203,
2010-05-25, 02:58:04,VALID,1003.71,VALID,0,VALID,97.7336,VALID,0.100563,VALID,24.1865,VALID,306,VALID,0.476172,
2010-05-25, 02:59:04,VALID,1003.73,VALID,0,VALID,97.6954,VALID,0.100563,VALID,24.2273,VALID,306,VALID,0.275391,
2010-05-25, 03:00:04,VALID,1003.73,VALID,0,VALID,97.6802,VALID,0.100563,VALID,24.2662,VALID,306,VALID,0.0769531,
2010-05-25, 03:01:04,VALID,1003.76,VALID,0,VALID,97.7107,VALID,0,VALID,24.2486,VALID,306,VALID,0.446094,
2010-05-25, 03:02:04,VALID,1003.71,VALID,0,VALID,97.7641,VALID,0,VALID,24.1902,VALID,312,VALID,0.5125,
2010-05-25, 03:03:04,VALID,1003.71,VALID,0,VALID,97.7946,VALID,0,VALID,24.1707,VALID,335,VALID,0.467187,
2010-05-25, 03:04:04,VALID,1003.71,VALID,0,VALID,97.787,VALID,0,VALID,24.1318,VALID,335,VALID,0.263281,
2010-05-25, 03:05:04,VALID,1003.72,VALID,0,VALID,97.7946,VALID,0,VALID,24.1318,VALID,342,VALID,0.541406,
2010-05-25, 03:06:04,VALID,1003.7,VALID,0,VALID,97.8175,VALID,0,VALID,24.0929,VALID,342,VALID,0.191797,
2010-05-25, 03:07:04,VALID,1003.68,VALID,0,VALID,97.8099,VALID,0,VALID,24.0929,VALID,319,VALID,0.401953,
2010-05-25, 03:08:04,VALID,1003.68,VALID,0,VALID,97.7946,VALID,0,VALID,24.091,VALID,307,VALID,0.0550781,
2010-05-25, 03:09:04,VALID,1003.67,VALID,0,VALID,97.7641,VALID,0,VALID,24.13,VALID,307,VALID,0.157422,
2010-05-25, 03:10:04,VALID,1003.64,VALID,0,VALID,97.7641,VALID,0,VALID,24.1707,VALID,307,VALID,0.112109,
2010-05-25, 03:11:04,VALID,1003.65,VALID,0,VALID,97.7794,VALID,0,VALID,24.1689,VALID,307,VALID,0.0910156,
2010-05-25, 03:12:04,VALID,1003.62,VALID,0,VALID,97.7717,VALID,0,VALID,24.1884,VALID,307,VALID,0.046875,
2010-05-25, 03:13:04,VALID,1003.61,VALID,0,VALID,97.7565,VALID,0,VALID,24.2078,VALID,307,VALID,0.26875,
2010-05-25, 03:14:04,VALID,1003.57,VALID,0,VALID,97.7717,VALID,0,VALID,24.2078,VALID,323,VALID,0.464453,
2010-05-25, 03:15:04,VALID,1003.58,VALID,0,VALID,97.7794,VALID,0,VALID,24.2291,VALID,340,VALID,0.162109,
2010-05-25, 03:16:04,VALID,1003.58,VALID,0,VALID,97.7717,VALID,0,VALID,24.2291,VALID,293,VALID,0.802734,
2010-05-25, 03:17:04,VALID,1003.58,VALID,0,VALID,97.7717,VALID,0,VALID,24.2681,VALID,293,VALID,0.261328,
2010-05-25, 03:18:04,VALID,1003.59,VALID,0,VALID,97.7565,VALID,0,VALID,24.2681,VALID,293,VALID,0.0566406,
2010-05-25, 03:19:04,VALID,1003.59,VALID,0,VALID,97.7946,VALID,0,VALID,24.2681,VALID,313,VALID,0.579687,
2010-05-25, 03:20:04,VALID,1003.63,VALID,0,VALID,97.8022,VALID,0,VALID,24.2681,VALID,349,VALID,0.694141,
2010-05-25, 03:21:04,VALID,1003.66,VALID,0,VALID,97.8328,VALID,0,VALID,24.2681,VALID,349,VALID,0.155078,
2010-05-25, 03:22:04,VALID,1003.64,VALID,0,VALID,97.8175,VALID,0,VALID,24.2273,VALID,350,VALID,0.0183594,
2010-05-25, 03:23:04,VALID,1003.66,VALID,0,VALID,97.8175,VALID,0,VALID,24.2486,VALID,350,VALID,0.015625,
2010-05-25, 03:24:04,VALID,1003.69,VALID,0,VALID,97.8328,VALID,0,VALID,24.2486,VALID,350,VALID,0.132422,
2010-05-25, 03:25:04,VALID,1003.69,VALID,0,VALID,97.8404,VALID,0,VALID,24.2273,VALID,350,VALID,0,
2010-05-25, 03:26:04,VALID,1003.67,VALID,0,VALID,97.8328,VALID,0,VALID,24.2699,VALID,350,VALID,0.421094,
2010-05-25, 03:27:04,VALID,1003.67,VALID,0,VALID,97.8175,VALID,0,VALID,24.2486,VALID,341,VALID,0.450781,
2010-05-25, 03:28:04,VALID,1003.68,VALID,0,VALID,97.8633,VALID,0,VALID,24.2097,VALID,341,VALID,0.5125,
2010-05-25, 03:29:04,VALID,1003.67,VALID,0,VALID,97.8633,VALID,0,VALID,24.1902,VALID,341,VALID,0.409766,
2010-05-25, 03:30:04,VALID,1003.69,VALID,0,VALID,97.8709,VALID,0,VALID,24.1902,VALID,341,VALID,0.326953,
2010-05-25, 03:31:04,VALID,1003.65,VALID,0,VALID,97.8557,VALID,0,VALID,24.1689,VALID,341,VALID,0.447266,
2010-05-25, 03:32:04,VALID,1003.67,VALID,0,VALID,97.8785,VALID,0.100563,VALID,24.13,VALID,341,VALID,0.490234,
2010-05-25, 03:33:04,VALID,1003.65,VALID,0,VALID,97.8633,VALID,0.100563,VALID,24.1105,VALID,341,VALID,0.368359,
2010-05-25, 03:34:04,VALID,1003.63,VALID,0,VALID,97.8404,VALID,0,VALID,24.1318,VALID,341,VALID,0.219922,
2010-05-25, 03:35:04,VALID,1003.64,VALID,0,VALID,97.8404,VALID,0.100563,VALID,24.13,VALID,341,VALID,0.394141,
2010-05-25, 03:36:04,VALID,1003.63,VALID,0,VALID,97.848,VALID,0.100563,VALID,24.091,VALID,341,VALID,0.43125,
2010-05-25, 03:37:04,VALID,1003.67,VALID,0,VALID,97.8557,VALID,0,VALID,24.0716,VALID,341,VALID,0.635156,
2010-05-25, 03:38:04,VALID,1003.68,VALID,0,VALID,97.8557,VALID,0,VALID,24.0521,VALID,341,VALID,0.638672,
2010-05-25, 03:39:04,VALID,1003.72,VALID,0,VALID,97.8404,VALID,0,VALID,24.0521,VALID,341,VALID,0.534375,
2010-05-25, 03:40:04,VALID,1003.67,VALID,0,VALID,97.848,VALID,0,VALID,24.0326,VALID,346,VALID,0.685938,
2010-05-25, 03:41:04,VALID,1003.71,VALID,0,VALID,97.8404,VALID,0,VALID,24.0326,VALID,346,VALID,0.510547,
2010-05-25, 03:42:04,VALID,1003.72,VALID,0,VALID,97.8328,VALID,0,VALID,24.0114,VALID,346,VALID,0.524609,
2010-05-25, 03:43:04,VALID,1003.73,VALID,0,VALID,97.8022,VALID,0,VALID,24.0326,VALID,346,VALID,0.382031,
2010-05-25, 03:44:04,VALID,1003.75,VALID,0,VALID,97.8022,VALID,0,VALID,24.0326,VALID,346,VALID,0.35,